Regional Weather Roundup
Issued by NWS

Home | Current Version | Previous Version | Graphics & Text | Print | Product List | Glossary On
Versions: 1 2 3 4 5 6 7 8 9 10 11 12 13 14 15 16 17 18 19 20 21 22 23 24 25 26 27 28 29 30 31 32 33 34 35 36 37 38 39 40 41 42 43 44 45 46 47 48 49 50
000
ASUS45 KCYS 281710
RWRWY

WYOMING REGIONAL WEATHER ROUNDUP
NATIONAL WEATHER SERVICE CHEYENNE WY
1100 AM MDT SUN MAY 28 2017

NOTE:  "FAIR" INDICATES FEW OR NO CLOUDS BELOW 12,000 FEET
WITH NO SIGNIFICANT WEATHER AND/OR OBSTRUCTIONS TO VISIBILITY.

WYZ001-281800-
YELLOWSTONE NATIONAL PARK

CITY           SKY/WX    TMP DP  RH WIND       PRES   REMARKS
LK YELLOWSTONE   N/A     45  35  68 VRB3      30.42F
W YELLOWSTONE  NOT AVBL

$$
WYZ002>013-054>058-071-098>099-281800-
NORTHERN WYOMING

CITY           SKY/WX    TMP DP  RH WIND       PRES   REMARKS
JACKSON        MOSUNNY   55  36  47 CALM      30.37F
CODY           FAIR      67  32  27 N14G22    30.27S
GREYBULL       FAIR      66  38  35 VRB3      30.22F
WORLAND        CLOUDY    66  41  40 VRB6      30.24S
SHERIDAN       FAIR      68  42  38 NW20G28   30.20S
BUFFALO        FAIR      65  38  36 N32G40    30.23S
GILLETTE       PTSUNNY   66  44  45 NW15      30.17F
HULETT         FAIR      64  41  42 NW9G18    30.16S
NEWCASTLE      FAIR      63  37  39 N16G22    30.17S

$$
WYZ014>020-022>026-101>103-281800-
CENTRAL WYOMING

CITY           SKY/WX    TMP DP  RH WIND       PRES   REMARKS
BIG PINEY      FAIR      57  29  34 CALM      30.37F
PINEDALE       FAIR      55  27  33 SW3       30.38F
DUBOIS         FAIR      57  27  30 NW12      30.34S
LANDER         FAIR      62  37  39 NE6       30.28F
RIVERTON       FAIR      63  37  38 NE8       30.29F
CASPER         FAIR      62  39  42 SW8       30.26F
DOUGLAS        FAIR      65  41  41 NW13      30.24F

$$
WYZ021-027>030-104>119-281800-
SOUTHERN WYOMING

CITY           SKY/WX    TMP DP  RH WIND       PRES   REMARKS
EVANSTON       FAIR      58  31  35 N5        30.36F
KEMMERER         N/A     59  27  29 CALM      30.38F
FORT BRIDGER   FAIR      58  31  35 N5        30.39F
ROCK SPRINGS   FAIR      59  31  34 CALM      30.36F
DIXON            N/A     57  33  40 W5        30.38F
RAWLINS        FAIR      60  29  30 W12       30.35F
SARATOGA       FAIR      55  30  38 W10       30.37S
LARAMIE        FAIR      57  30  35 N15       30.33S
CHEYENNE       PTSUNNY   59  30  33 NW17G24   30.29R
TORRINGTON     FAIR      68  37  32 NW14G20   30.18S
PINE BLUFFS    FAIR      64  32  29 N13G28    30.25S

$$



USA.gov is the U.S. government's official web portal to all federal, state and local government web resources and services.